QPF
0.01 0.01 0.01 0.01 0.01 0.01 0.02 0.03 0.03 0.03 0.02 0.03 0.02 0.02 0.02 0.03 0.05 0.06 0.05 0.04 0.02 0.01 0.01 0.01 0.01 0.02 0.02 0.02 0.04 0.06 0.07 0.06 0.06 0.06 0.06 0.05 0.04 0.03
0.01 0.01 0.01 0.01 0.01 0.01 0.01 0.02 0.03 0.03 0.03 0.02 0.02 0.01 0.02 0.01 0.03 0.06 0.06 0.06 0.03 0.02 0.01 0.01 0.01 0.01 0.01 0.01 0.02 0.03 0.05 0.06 0.06 0.06 0.06 0.05 0.04 0.03
0.01 0.01 0.01 0.01 0.01 0.01 0.01 0.01 0.01 0.02 0.03 0.01 0.02 0.01 0.02 0.01 0.02 0.04 0.06 0.06 0.04 0.03 0.03 0.03 0.02 0.01 0.01 0.01 0.01 0.02 0.03 0.05 0.05 0.04 0.04 0.03 0.03 0.03
0.02 0.01 0.01 0.00 0.01 0.01 0.01 0.01 0.01 0.01 0.01 0.01 0.01 0.02 0.02 0.02 0.02 0.04 0.05 0.06 0.06 0.05 0.04 0.03 0.03 0.02 0.02 0.02 0.02 0.02 0.03 0.04 0.04 0.03 0.02 0.02 0.02 0.02
0.01 0.01 0.01 0.01 0.00 0.00 0.01 0.01 0.01 0.01 0.01 0.01 0.01 0.01 0.01 0.01 0.02 0.03 0.05 0.06 0.05 0.04 0.04 0.04 0.04 0.04 0.04 0.04 0.04 0.05 0.05 0.04 0.04 0.04 0.03 0.02 0.02 0.02
0.00 0.00 0.01 0.01 0.01 0.01 0.01 0.01 0.01 0.01 0.01 0.01 0.01 0.02 0.02 0.01 0.01 0.01 0.04 0.05 0.05 0.05 0.03 0.03 0.04 0.05 0.04 0.05 0.05 0.06 0.06 0.07 0.05 0.04 0.04 0.03 0.02 0.02
0.01 0.01 0.01 0.01 0.01 0.01 0.01 0.00 0.00 0.01 0.02 0.02 0.02 0.02 0.02 0.02 0.02 0.02 0.03 0.05 0.04 0.05 0.04 0.03 0.02 0.02 0.03 0.04 0.04 0.05 0.06 0.07 0.06 0.04 0.04 0.04 0.03 0.02
0.01 0.01 0.01 0.01 0.01 0.01 0.01 0.01 0.00 0.00 0.01 0.02 0.02 0.02 0.02 0.02 0.02 0.02 0.03 0.06 0.04 0.04 0.04 0.04 0.03 0.03 0.02 0.03 0.03 0.03 0.04 0.07 0.07 0.04 0.03 0.04 0.03 0.02
0.01 0.02 0.02 0.01 0.01 0.01 0.01 0.01 0.00 0.00 0.00 0.01 0.02 0.02 0.03 0.03 0.03 0.02 0.02 0.05 0.05 0.03 0.04 0.04 0.04 0.05 0.03 0.02 0.02 0.02 0.02 0.04 0.07 0.06 0.04 0.04 0.03 0.02
0.01 0.02 0.02 0.02 0.01 0.02 0.01 0.01 0.01 0.00 0.00 0.01 0.01 0.02 0.02 0.03 0.03 0.02 0.02 0.02 0.04 0.03 0.02 0.03 0.04 0.04 0.04 0.03 0.02 0.01 0.01 0.03 0.05 0.07 0.05 0.03 0.03 0.02
0.01 0.02 0.02 0.02 0.02 0.03 0.02 0.01 0.01 0.01 0.01 0.01 0.01 0.01 0.01 0.02 0.02 0.02 0.01 0.02 0.03 0.05 0.02 0.02 0.02 0.03 0.03 0.04 0.03 0.02 0.01 0.02 0.03 0.05 0.05 0.03 0.02 0.02
0.02 0.02 0.03 0.03 0.04 0.03 0.02 0.02 0.01 0.01 0.01 0.01 0.01 0.01 0.01 0.01 0.01 0.01 0.01 0.02 0.03 0.05 0.04 0.02 0.02 0.02 0.02 0.02 0.03 0.03 0.02 0.01 0.01 0.02 0.04 0.03 0.02 0.02
0.02 0.02 0.02 0.03 0.03 0.02 0.02 0.03 0.03 0.03 0.02 0.01 0.01 0.01 0.01 0.02 0.01 0.01 0.01 0.01 0.01 0.03 0.04 0.03 0.03 0.02 0.02 0.01 0.01 0.02 0.02 0.02 0.01 0.01 0.02 0.03 0.03 0.02
0.03 0.02 0.02 0.03 0.03 0.02 0.03 0.04 0.05 0.04 0.04 0.04 0.02 0.01 0.02 0.02 0.01 0.01 0.01 0.01 0.01 0.01 0.02 0.02 0.02 0.02 0.03 0.02 0.02 0.02 0.02 0.02 0.01 0.01 0.01 0.01 0.02 0.03
0.01 0.02 0.02 0.02 0.02 0.02 0.02 0.04 0.04 0.04 0.05 0.06 0.05 0.03 0.02 0.03 0.02 0.01 0.01 0.02 0.02 0.01 0.01 0.02 0.01 0.02 0.02 0.03 0.02 0.02 0.02 0.02 0.02 0.01 0.01 0.01 0.01 0.02
0.01 0.01 0.02 0.02 0.02 0.02 0.03 0.03 0.02 0.03 0.05 0.05 0.06 0.06 0.04 0.04 0.03 0.02 0.02 0.02 0.02 0.01 0.01 0.01 0.02 0.02 0.02 0.02 0.02 0.02 0.01 0.02 0.02 0.01 0.01 0.00 0.01 0.02
0.03 0.02 0.02 0.02 0.03 0.03 0.03 0.03 0.03 0.03 0.04 0.05 0.05 0.07 0.07 0.05 0.04 0.02 0.02 0.02 0.02 0.01 0.01 0.01 0.02 0.02 0.02 0.01 0.02 0.02 0.02 0.02 0.02 0.02 0.02 0.01 0.00 0.01
0.04 0.03 0.02 0.02 0.02 0.03 0.04 0.03 0.03 0.02 0.02 0.03 0.04 0.04 0.05 0.06 0.05 0.02 0.01 0.02 0.02 0.02 0.01 0.02 0.03 0.03 0.02 0.02 0.02 0.02 0.02 0.02 0.02 0.02 0.02 0.02 0.01 0.01
0.03 0.02 0.02 0.02 0.02 0.02 0.03 0.03 0.03 0.02 0.02 0.02 0.03 0.04 0.04 0.05 0.05 0.04 0.02 0.01 0.01 0.01 0.01 0.02 0.02 0.03 0.03 0.02 0.01 0.01 0.02 0.02 0.02 0.02 0.02 0.02 0.02 0.01
0.03 0.03 0.02 0.02 0.02 0.03 0.03 0.03 0.03 0.03 0.03 0.03 0.03 0.03 0.04 0.05 0.05 0.05 0.03 0.02 0.02 0.02 0.02 0.02 0.02 0.02 0.02 0.02 0.02 0.01 0.01 0.02 0.02 0.02 0.02 0.02 0.02 0.02
0.03 0.03 0.03 0.02 0.02 0.02 0.03 0.03 0.03 0.04 0.04 0.04 0.04 0.04 0.03 0.03 0.04 0.05 0.04 0.04 0.03 0.02 0.02 0.02 0.01 0.01 0.02 0.02 0.01 0.01 0.01 0.01 0.02 0.02 0.02 0.02 0.03 0.03
0.03 0.03 0.03 0.03 0.02 0.03 0.03 0.03 0.03 0.03 0.04 0.04 0.03 0.03 0.03 0.03 0.03 0.04 0.05 0.05 0.04 0.03 0.03 0.02 0.01 0.01 0.01 0.02 0.01 0.01 0.01 0.02 0.03 0.03 0.03 0.02 0.02 0.02
0.04 0.04 0.03 0.03 0.03 0.03 0.03 0.03 0.03 0.03 0.03 0.03 0.03 0.03 0.03 0.03 0.03 0.03 0.04 0.05 0.05 0.04 0.04 0.03 0.03 0.02 0.02 0.02 0.02 0.02 0.02 0.02 0.02 0.03 0.03 0.02 0.02 0.02
MSLP
1025.03 1025.07 1025.15 1025.28 1025.47 1025.72 1026.02 1026.36 1026.72 1027.10 1027.46 1027.79 1028.07 1028.30 1028.47 1028.57 1028.62 1028.62 1028.59 1028.53 1028.46 1028.39 1028.30 1028.20 1028.09 1027.95 1027.80 1027.63 1027.45 1027.29 1027.15 1027.04 1026.98 1026.98 1027.01 1027.06 1027.13 1027.18
1025.01 1025.01 1025.04 1025.11 1025.23 1025.41 1025.65 1025.96 1026.30 1026.69 1027.08 1027.47 1027.83 1028.14 1028.39 1028.58 1028.70 1028.78 1028.81 1028.81 1028.80 1028.78 1028.76 1028.73 1028.68 1028.62 1028.53 1028.41 1028.26 1028.10 1027.95 1027.82 1027.72 1027.67 1027.67 1027.70 1027.76 1027.82
1024.95 1024.93 1024.92 1024.95 1025.02 1025.16 1025.36 1025.62 1025.95 1026.33 1026.75 1027.18 1027.59 1027.97 1028.29 1028.56 1028.75 1028.88 1028.97 1029.02 1029.06 1029.09 1029.12 1029.14 1029.16 1029.16 1029.13 1029.06 1028.95 1028.82 1028.67 1028.52 1028.40 1028.31 1028.28 1028.29 1028.33 1028.40
1024.80 1024.79 1024.78 1024.80 1024.85 1024.96 1025.13 1025.38 1025.69 1026.07 1026.49 1026.94 1027.39 1027.81 1028.19 1028.50 1028.74 1028.93 1029.05 1029.14 1029.21 1029.27 1029.33 1029.40 1029.47 1029.52 1029.54 1029.53 1029.47 1029.37 1029.25 1029.11 1028.98 1028.88 1028.81 1028.80 1028.83 1028.89
1024.57 1024.58 1024.59 1024.62 1024.69 1024.80 1024.96 1025.20 1025.50 1025.87 1026.29 1026.74 1027.20 1027.64 1028.04 1028.39 1028.66 1028.86 1029.01 1029.12 1029.20 1029.28 1029.37 1029.46 1029.56 1029.65 1029.73 1029.77 1029.77 1029.73 1029.65 1029.54 1029.43 1029.33 1029.26 1029.23 1029.24 1029.29
1024.24 1024.29 1024.34 1024.40 1024.50 1024.62 1024.80 1025.04 1025.34 1025.69 1026.10 1026.54 1026.99 1027.42 1027.82 1028.17 1028.45 1028.66 1028.82 1028.93 1029.02 1029.10 1029.19 1029.30 1029.42 1029.55 1029.67 1029.77 1029.84 1029.86 1029.85 1029.80 1029.73 1029.66 1029.60 1029.57 1029.57 1029.61
1023.86 1023.93 1024.01 1024.12 1024.24 1024.40 1024.59 1024.84 1025.13 1025.47 1025.85 1026.26 1026.69 1027.10 1027.48 1027.82 1028.09 1028.30 1028.46 1028.57 1028.65 1028.73 1028.82 1028.93 1029.07 1029.22 1029.38 1029.53 1029.66 1029.76 1029.83 1029.86 1029.86 1029.84 1029.82 1029.81 1029.82 1029.84
1023.44 1023.52 1023.62 1023.75 1023.90 1024.08 1024.28 1024.53 1024.81 1025.13 1025.49 1025.87 1026.26 1026.65 1027.00 1027.32 1027.59 1027.80 1027.95 1028.06 1028.15 1028.22 1028.31 1028.41 1028.55 1028.71 1028.90 1029.09 1029.28 1029.46 1029.60 1029.72 1029.81 1029.87 1029.91 1029.94 1029.96 1029.99
1023.05 1023.09 1023.18 1023.30 1023.45 1023.64 1023.85 1024.09 1024.36 1024.66 1024.99 1025.34 1025.70 1026.05 1026.40 1026.70 1026.97 1027.19 1027.35 1027.48 1027.57 1027.65 1027.73 1027.82 1027.95 1028.11 1028.30 1028.51 1028.74 1028.98 1029.20 1029.40 1029.58 1029.73 1029.84 1029.93 1030.00 1030.04
1022.71 1022.69 1022.72 1022.81 1022.93 1023.10 1023.29 1023.52 1023.77 1024.05 1024.35 1024.67 1025.01 1025.35 1025.69 1026.00 1026.28 1026.52 1026.72 1026.87 1026.98 1027.07 1027.15 1027.24 1027.35 1027.49 1027.67 1027.88 1028.12 1028.38 1028.65 1028.92 1029.18 1029.41 1029.61 1029.77 1029.89 1029.97
1022.47 1022.35 1022.30 1022.31 1022.37 1022.50 1022.65 1022.85 1023.07 1023.33 1023.61 1023.91 1024.24 1024.58 1024.92 1025.26 1025.57 1025.86 1026.10 1026.30 1026.45 1026.56 1026.66 1026.74 1026.82 1026.93 1027.07 1027.24 1027.46 1027.72 1028.01 1028.31 1028.62 1028.92 1029.19 1029.42 1029.60 1029.73
1022.35 1022.11 1021.94 1021.85 1021.84 1021.89 1021.99 1022.15 1022.34 1022.56 1022.82 1023.10 1023.42 1023.77 1024.13 1024.50 1024.86 1025.20 1025.51 1025.76 1025.97 1026.13 1026.24 1026.32 1026.38 1026.45 1026.54 1026.66 1026.83 1027.04 1027.30 1027.60 1027.93 1028.26 1028.58 1028.86 1029.10 1029.28
1022.36 1021.98 1021.69 1021.49 1021.38 1021.35 1021.38 1021.47 1021.61 1021.80 1022.03 1022.30 1022.60 1022.95 1023.33 1023.73 1024.14 1024.54 1024.91 1025.24 1025.51 1025.72 1025.87 1025.96 1026.02 1026.05 1026.08 1026.14 1026.23 1026.37 1026.57 1026.83 1027.12 1027.45 1027.78 1028.09 1028.37 1028.58
1022.51 1022.01 1021.59 1021.28 1021.06 1020.93 1020.88 1020.90 1020.98 1021.11 1021.29 1021.52 1021.80 1022.13 1022.51 1022.93 1023.37 1023.81 1024.24 1024.64 1024.98 1025.26 1025.46 1025.59 1025.65 1025.67 1025.66 1025.66 1025.67 1025.73 1025.85 1026.02 1026.25 1026.53 1026.83 1027.13 1027.41 1027.64
1022.78 1022.18 1021.66 1021.24 1020.92 1020.69 1020.55 1020.48 1020.48 1020.53 1020.64 1020.81 1021.03 1021.32 1021.66 1022.06 1022.50 1022.97 1023.44 1023.90 1024.31 1024.65 1024.92 1025.10 1025.21 1025.24 1025.22 1025.17 1025.13 1025.11 1025.13 1025.21 1025.35 1025.55 1025.78 1026.03 1026.28 1026.50
1023.18 1022.52 1021.92 1021.42 1021.01 1020.69 1020.44 1020.27 1020.17 1020.12 1020.12 1020.18 1020.31 1020.51 1020.78 1021.11 1021.52 1021.97 1022.45 1022.94 1023.40 1023.82 1024.16 1024.42 1024.59 1024.67 1024.68 1024.64 1024.56 1024.49 1024.44 1024.43 1024.47 1024.56 1024.70 1024.87 1025.06 1025.24
1023.70 1023.01 1022.38 1021.82 1021.34 1020.93 1020.59 1020.31 1020.08 1019.90 1019.77 1019.69 1019.68 1019.74 1019.89 1020.11 1020.43 1020.82 1021.27 1021.75 1022.25 1022.72 1023.14 1023.48 1023.74 1023.91 1023.99 1023.98 1023.93 1023.84 1023.75 1023.67 1023.62 1023.62 1023.66 1023.74 1023.84 1023.95
1024.32 1023.66 1023.03 1022.44 1021.91 1021.43 1020.99 1020.60 1020.24 1019.92 1019.63 1019.39 1019.20 1019.09 1019.06 1019.13 1019.31 1019.58 1019.95 1020.39 1020.88 1021.38 1021.85 1022.28 1022.64 1022.91 1023.09 1023.17 1023.18 1023.12 1023.03 1022.93 1022.83 1022.75 1022.70 1022.68 1022.70 1022.74
1025.02 1024.42 1023.82 1023.24 1022.69 1022.15 1021.64 1021.15 1020.66 1020.19 1019.74 1019.31 1018.93 1018.62 1018.39 1018.27 1018.26 1018.38 1018.62 1018.97 1019.40 1019.88 1020.39 1020.88 1021.32 1021.69 1021.98 1022.17 1022.26 1022.28 1022.23 1022.15 1022.04 1021.92 1021.82 1021.73 1021.68 1021.65
1025.77 1025.26 1024.72 1024.18 1023.62 1023.06 1022.49 1021.91 1021.31 1020.71 1020.10 1019.49 1018.92 1018.40 1017.96 1017.63 1017.42 1017.34 1017.41 1017.62 1017.95 1018.37 1018.85 1019.35 1019.84 1020.29 1020.66 1020.96 1021.16 1021.27 1021.30 1021.27 1021.19 1021.09 1020.97 1020.86 1020.76 1020.69
1026.51 1026.10 1025.65 1025.16 1024.63 1024.07 1023.47 1022.83 1022.15 1021.43 1020.69 1019.93 1019.19 1018.48 1017.84 1017.30 1016.87 1016.59 1016.46 1016.49 1016.66 1016.96 1017.35 1017.81 1018.29 1018.76 1019.19 1019.56 1019.85 1020.05 1020.17 1020.22 1020.21 1020.16 1020.08 1019.98 1019.89 1019.81
1027.17 1026.86 1026.50 1026.08 1025.60 1025.06 1024.46 1023.80 1023.07 1022.29 1021.46 1020.59 1019.72 1018.86 1018.05 1017.31 1016.68 1016.19 1015.85 1015.66 1015.64 1015.77 1016.02 1016.36 1016.76 1017.19 1017.62 1018.01 1018.35 1018.62 1018.83 1018.96 1019.04 1019.07 1019.05 1019.02 1018.97 1018.93
1027.66 1027.46 1027.20 1026.85 1026.44 1025.94 1025.37 1024.71 1023.98 1023.17 1022.30 1021.38 1020.43 1019.47 1018.53 1017.64 1016.84 1016.16 1015.61 1015.21 1014.97 1014.88 1014.94 1015.10 1015.36 1015.68 1016.03 1016.39 1016.72 1017.02 1017.28 1017.48 1017.64 1017.76 1017.83 1017.88 1017.91 1017.93
Thickness
5660 5659 5657 5656 5655 5654 5652 5649 5642 5636 5636 5640 5641 5643 5643 5642 5641 5640 5639 5639 5638 5638 5638 5638 5638 5639 5639 5639 5640 5640 5641 5641 5640 5640 5640 5640 5641 5641
5656 5654 5652 5651 5650 5649 5647 5646 5643 5638 5633 5635 5636 5637 5638 5637 5636 5635 5634 5634 5633 5633 5632 5632 5632 5633 5633 5633 5634 5635 5635 5635 5635 5634 5634 5634 5634 5635
5651 5649 5647 5647 5645 5643 5642 5641 5639 5636 5630 5630 5632 5632 5631 5630 5630 5629 5629 5628 5627 5627 5627 5627 5627 5627 5628 5628 5629 5629 5629 5629 5629 5629 5628 5628 5628 5629
5645 5644 5642 5642 5640 5638 5636 5635 5634 5633 5628 5625 5625 5625 5625 5625 5624 5624 5624 5623 5622 5622 5622 5622 5622 5622 5622 5623 5623 5623 5623 5623 5623 5623 5623 5623 5623 5623
5640 5639 5638 5636 5634 5633 5632 5630 5629 5628 5625 5622 5620 5620 5620 5620 5619 5618 5618 5618 5618 5617 5616 5616 5616 5617 5617 5617 5617 5617 5618 5618 5617 5617 5617 5617 5617 5617
5636 5634 5633 5632 5630 5628 5627 5625 5623 5621 5619 5617 5615 5614 5613 5614 5613 5611 5611 5611 5612 5612 5611 5611 5611 5611 5612 5612 5612 5612 5612 5612 5612 5612 5611 5611 5610 5610
5631 5630 5629 5629 5628 5625 5623 5620 5619 5615 5613 5610 5608 5608 5607 5606 5605 5606 5605 5605 5606 5607 5606 5606 5606 5606 5606 5607 5606 5606 5606 5607 5607 5606 5606 5605 5604 5604
5626 5625 5625 5624 5622 5621 5619 5618 5616 5612 5608 5606 5604 5603 5602 5602 5601 5601 5599 5598 5598 5602 5601 5601 5601 5600 5601 5601 5602 5602 5601 5601 5601 5600 5600 5599 5598 5598
5621 5620 5620 5619 5617 5615 5613 5612 5611 5610 5608 5605 5602 5601 5600 5599 5597 5596 5595 5594 5594 5597 5596 5595 5596 5596 5597 5597 5597 5596 5596 5595 5595 5595 5594 5594 5593 5592
5616 5615 5614 5612 5611 5609 5607 5605 5604 5604 5603 5602 5601 5600 5599 5597 5595 5593 5592 5591 5592 5593 5593 5590 5591 5591 5593 5592 5592 5592 5591 5591 5590 5590 5589 5588 5587 5587
5611 5610 5609 5606 5606 5605 5602 5599 5598 5597 5598 5598 5597 5596 5595 5594 5592 5589 5587 5585 5585 5587 5588 5587 5587 5587 5588 5588 5588 5588 5587 5586 5586 5585 5584 5583 5582 5581
5604 5604 5603 5601 5600 5598 5596 5593 5591 5591 5592 5591 5591 5590 5590 5589 5588 5586 5585 5582 5581 5581 5584 5582 5581 5581 5580 5583 5583 5583 5581 5580 5580 5580 5579 5578 5577 5576
5596 5596 5595 5595 5593 5592 5591 5589 5588 5587 5586 5585 5584 5584 5584 5583 5583 5582 5582 5580 5577 5577 5579 5578 5576 5576 5575 5575 5576 5577 5576 5575 5575 5574 5574 5573 5572 5571
5588 5589 5588 5587 5586 5585 5585 5585 5584 5582 5580 5578 5577 5576 5576 5576 5577 5577 5576 5576 5576 5575 5575 5574 5572 5571 5570 5569 5569 5571 5570 5570 5570 5569 5568 5568 5567 5566
5581 5581 5581 5580 5579 5579 5578 5578 5577 5574 5573 5571 5570 5570 5571 5571 5571 5571 5571 5570 5570 5570 5570 5569 5568 5567 5565 5564 5564 5564 5564 5564 5564 5564 5563 5562 5561 5560
5573 5573 5573 5573 5572 5571 5571 5570 5569 5568 5566 5565 5564 5564 5565 5564 5564 5564 5563 5563 5562 5562 5563 5563 5563 5562 5560 5560 5558 5558 5558 5558 5558 5558 5557 5556 5555 5554
5564 5562 5561 5562 5562 5561 5561 5561 5561 5560 5559 5558 5557 5557 5557 5557 5557 5557 5557 5556 5555 5554 5554 5555 5555 5555 5555 5553 5551 5551 5551 5551 5551 5551 5550 5548 5548 5548
5554 5553 5552 5552 5552 5552 5552 5552 5552 5551 5551 5550 5550 5549 5549 5549 5549 5549 5550 5549 5548 5548 5548 5547 5546 5545 5544 5545 5545 5545 5544 5544 5544 5544 5543 5541 5540 5541
5544 5544 5544 5544 5544 5544 5544 5544 5544 5544 5543 5543 5542 5542 5542 5542 5542 5542 5542 5541 5541 5541 5540 5539 5538 5536 5534 5535 5538 5538 5537 5536 5535 5534 5534 5533 5533 5534
5537 5536 5536 5536 5536 5536 5535 5535 5535 5535 5535 5534 5534 5534 5534 5534 5534 5534 5534 5533 5533 5533 5532 5531 5530 5529 5529 5528 5529 5530 5530 5528 5527 5526 5525 5526 5525 5526
5529 5529 5529 5529 5529 5528 5528 5527 5527 5526 5526 5526 5525 5525 5525 5525 5525 5525 5525 5525 5525 5525 5524 5525 5525 5524 5523 5520 5520 5521 5521 5521 5521 5519 5518 5516 5514 5514
5521 5521 5521 5521 5521 5521 5520 5519 5518 5518 5517 5517 5517 5516 5516 5516 5517 5517 5517 5516 5516 5516 5516 5516 5517 5515 5514 5513 5512 5512 5512 5512 5512 5511 5510 5509 5507 5506
5514 5513 5513 5513 5512 5512 5511 5511 5510 5509 5509 5508 5508 5508 5507 5507 5508 5508 5508 5508 5508 5507 5506 5506 5505 5505 5505 5505 5504 5503 5503 5502 5501 5500 5500 5500 5500 5499